Weather History for Cincinnati, OH

Change the Weather History Date:

Sunday, March 17, 2013

  Actual Average Record
Temperature  
Mean Temperature 37 °F -  
Max Temperature 37 °F 52 °F 76 °F (1989)
Min Temperature 35 °F 32 °F 20 °F (1967)
Degree Days  
Heating Degree Days 28    
Moisture  
Dew Point 30 °F    
Average Humidity 77    
Maximum Humidity 92    
Minimum Humidity 70    
Precipitation  
Precipitation 0.02 in - - ()
Sea Level Pressure  
Sea Level Pressure 30.11 in    
Wind  
Wind Speed 9 mph (NE)    
Max Wind Speed 13 mph    
Max Gust Speed -    
Visibility 9 miles    
Events Rain , Snow    
Averages and records for this station are not official NWS values.
T = Trace of Precipitation, MM = Missing Value Source: NWS Daily Summary

Daily Weather History Graph

Daily Weather History Graph

Search for Another Location

Airport:

Trip Planner

Search our weather history database for the weather conditions in past years. The results will help you decide how hot, cold, wet, or windy it might be!

Date:

Astronomy

Mar. 17, 2013 Rise Set
Actual Time 7:45 AM EDT 7:46 PM EDT
Civil Twilight 7:18 AM EDT 8:13 PM EDT
Nautical Twilight 6:47 AM EDT 8:44 PM EDT
Astronomical Twilight 6:16 AM EDT 9:16 PM EDT
Moon 11:00 AM EDT (3/17) 12:51 AM EDT (3/17)
Length of Visible Light 12h 54m
Length of Day
12h 01m
Waxing Crescent, 31% of the Moon is Illuminated
Mar 17
Waxing Crescent
Mar 19
First Quarter
Mar 27
Full
Apr 3
Last Quarter
Apr 10
New

Hourly Weather History & Observations

Time (EDT) Temp. Windchill Dew Point Humidity Pressure Visibility Wind Dir Wind Speed Gust Speed Precip Events Conditions
12:53 AM 39.0 °F 34.0 °F 32.0 °F 76% 30.05 in 9.0 mi NNE 6.9 mph - N/A   Overcast
1:53 AM 37.9 °F 33.5 °F 32.0 °F 79% 30.06 in 10.0 mi NNE 5.8 mph - N/A   Overcast
2:53 AM 37.0 °F 30.4 °F 30.9 °F 79% 30.04 in 10.0 mi NE 9.2 mph - N/A   Overcast
3:53 AM 37.0 °F 28.9 °F 30.0 °F 76% 30.04 in 10.0 mi NE 12.7 mph - N/A   Overcast
4:53 AM 36.0 °F 29.0 °F 28.9 °F 76% 30.06 in 10.0 mi NNE 9.2 mph - N/A   Overcast
5:53 AM 36.0 °F 29.0 °F 28.9 °F 76% 30.09 in 10.0 mi NE 9.2 mph - N/A   Overcast
6:53 AM 35.1 °F 27.4 °F 28.9 °F 78% 30.13 in 10.0 mi ENE 10.4 mph - N/A   Overcast
7:53 AM 35.1 °F 28.6 °F 28.0 °F 76% 30.15 in 10.0 mi ENE 8.1 mph - N/A   Overcast
8:36 AM 35.6 °F 29.2 °F 26.6 °F 70% 30.15 in 10.0 mi ENE 8.1 mph - 0.00 in   Overcast
8:53 AM 35.1 °F 27.4 °F 27.0 °F 72% 30.18 in 10.0 mi NE 10.4 mph - 0.00 in   Overcast
9:53 AM 36.0 °F 28.5 °F 27.0 °F 70% 30.17 in 10.0 mi ENE 10.4 mph - N/A   Overcast
10:53 AM 36.0 °F 28.0 °F 28.0 °F 73% 30.17 in 10.0 mi ENE 11.5 mph - N/A   Overcast
11:53 AM 37.0 °F 28.9 °F 28.0 °F 70% 30.17 in 10.0 mi ENE 12.7 mph - N/A   Overcast
12:53 PM 36.0 °F 27.5 °F 28.9 °F 76% 30.17 in 10.0 mi ENE 12.7 mph - N/A   Overcast
1:53 PM 36.0 °F 28.0 °F 30.0 °F 79% 30.15 in 6.0 mi NE 11.5 mph - 0.00 in Snow Light Snow
2:53 PM 37.0 °F 31.0 °F 30.9 °F 79% 30.14 in 10.0 mi NE 8.1 mph - 0.00 in   Overcast
3:53 PM 37.0 °F 29.8 °F 30.0 °F 76% 30.13 in 10.0 mi NE 10.4 mph - N/A   Overcast
4:28 PM 37.4 °F 30.8 °F 30.2 °F 75% 30.11 in 10.0 mi ENE 9.2 mph - 0.00 in Rain Light Rain
4:53 PM 37.0 °F 30.4 °F 32.0 °F 82% 30.11 in 8.0 mi NE 9.2 mph - 0.00 in Rain Light Rain
5:53 PM 37.0 °F 29.8 °F 30.9 °F 79% 30.10 in 10.0 mi ENE 10.4 mph - 0.00 in   Overcast
6:53 PM 37.0 °F 29.8 °F 30.9 °F 79% 30.09 in 10.0 mi ENE 10.4 mph - N/A   Overcast
7:53 PM 37.0 °F 29.8 °F 30.0 °F 76% 30.09 in 10.0 mi NE 10.4 mph - N/A   Overcast
8:53 PM 37.0 °F 29.8 °F 30.0 °F 76% 30.09 in 10.0 mi NE 10.4 mph - 0.00 in Rain Light Rain
9:53 PM 36.0 °F 31.1 °F 32.0 °F 86% 30.08 in 8.0 mi ENE 5.8 mph - 0.00 in Rain Light Rain
10:53 PM 35.1 °F 30.1 °F 32.0 °F 89% 30.05 in 7.0 mi ENE 5.8 mph - 0.01 in Rain Light Rain
11:53 PM 35.1 °F 29.3 °F 33.1 °F 92% 30.03 in 5.0 mi NE 6.9 mph - 0.01 in Rain Light Rain